Location: Strada George Coșbuc
(47.6577°N, 23.5639°E)
Time: 22:19:06
(UTC+03:00)

ISS - Pass Details

Date: 11 September 2017
Orbit: 401 x 407 km, 51.6° (Epoch: 25 September)

Event Time Altitude Azimuth Distance (km) Brightness Sun altitude
Exits shadow 05:01:46 45° 320° (NW) 566 -3.3 -19.2°
Maximum altitude 05:02:11 49° 347° (NNW) 538 -3.2 -19.1°
Drops below altitude 10° 05:05:24 10° 64° (ENE) 1,475 0.3 -18.6°
Sets 05:07:32 0° 70° (ENE) 2,337 1.7 -18.3°
